EW0641 Weather Reports


Display with metric or nautical units.
time (UTC)temp
F
wind
direction
speed
MPH
gust
MPH
rain 1hr
in
rain 24hr
in
rain mn
in
humidity
%
barometer
mb
20260905150008 72 24 0.0 0.0 0.00 0.04 0.01 83 1014.0
20260905144515 72 69 0.0 0.0 0.00 0.04 0.01 84 1013.7
20260905143006 72 95 0.0 0.0 0.00 0.04 0.01 85 1013.6
20260905141505 72 137 0.0 0.0 0.00 0.04 0.01 85 1013.7
20260905140005 72 88 0.0 0.0 0.00 0.04 0.01 86 1013.6
20260905134504 72 95 0.0 0.0 0.00 0.04 0.01 87 1013.5
20260905133004 72 121 0.0 0.0 0.00 0.04 0.01 87 1013.4
20260905131504 71 104 0.0 0.0 0.00 0.04 0.01 88 1013.6
20260905130003 71 97 0.0 0.0 0.00 0.04 0.01 88 1013.8
20260905124501 71 98 0.0 0.0 0.00 0.04 0.01 89 1013.6
20260905123001 71 111 0.0 0.0 0.00 0.04 0.01 88 1013.7
20260905121602 71 128 0.0 0.0 0.00 0.04 0.01 88 1013.7
20260905120057 71 128 0.0 0.0 0.00 0.04 0.01 87 1013.4
20260905114557 71 107 0.0 0.0 0.00 0.04 0.01 87 1013.4
20260905113055 71 105 0.0 0.0 0.00 0.04 0.01 86 1013.4
20260905111556 70 146 0.0 0.0 0.00 0.04 0.01 87 1013.2
20260905110056 70 111 0.0 0.0 0.00 0.04 0.01 87 1013.2
20260905104557 70 110 0.0 0.0 0.00 0.04 0.01 87 1013.1
20260905103054 70 105 0.0 0.0 0.00 0.04 0.01 86 1013.1
20260905101553 70 123 0.0 0.0 0.00 0.04 0.01 86 1013.2
20260905100112 71 117 0.0 0.0 0.00 0.04 0.01 87 1013.1
20260905094552 71 117 0.0 0.0 0.00 0.04 0.01 86 1013.2
20260905093050 71 105 0.0 0.0 0.01 0.04 0.01 87 1013.1
20260905091552 71 101 0.0 0.0 0.01 0.04 0.01 88 1013.0
20260905090111 71 97 0.0 0.0 0.01 0.04 0.01 89 1012.8
20260905084549 71 51 0.0 0.0 0.01 0.04 0.01 89 1012.2
20260905083052 71 23 0.0 0.0 0.00 0.03 0.00 90 1012.2
20260905081552 71 84 0.0 0.0 0.00 0.03 0.00 91 1012.2
20260905080053 71 85 0.0 0.0 0.00 0.03 0.00 91 1012.5
20260905074548 71 107 0.0 0.0 0.00 0.03 0.00 91 1012.6
20260905073044 71 96 0.0 0.0 0.00 0.03 0.00 92 1012.6
20260905071543 71 113 0.0 0.0 0.00 0.03 0.00 92 1012.4
20260905070043 71 108 0.0 0.0 0.00 0.03 0.00 92 1012.3
20260905064542 71 107 0.0 0.0 0.00 0.03 0.00 92 1012.1
20260905063040 71 124 0.0 0.0 0.00 0.03 0.00 92 1012.0
20260905061541 72 104 0.0 0.0 0.00 0.03 0.00 92 1012.2
20260905060046 72 105 0.0 0.0 0.00 0.03 0.00 92 1012.6
20260905054540 72 103 0.0 0.0 0.00 0.04 0.00 92 1013.0
20260905053037 72 104 0.0 0.0 0.00 0.04 0.00 92 1013.0
20260905051538 72 105 0.0 0.0 0.00 0.04 0.00 92 1012.7
20260905050031 72 112 0.0 0.0 0.00 0.04 0.00 93 1012.8
20260905044537 73 92 0.0 0.0 0.00 0.04 0.00 93 1013.1
20260905043028 73 104 0.0 0.0 0.00 0.04 0.00 93 1013.3
20260905041526 73 105 0.0 0.0 0.00 0.04 0.00 93 1013.1
20260905040032 73 90 0.0 0.0 0.00 0.04 0.00 92 1013.0
20260905034524 73 53 0.0 0.0 0.00 0.04 0.04 93 1013.3
20260905033023 73 51 0.0 0.0 0.01 0.04 0.04 93 1013.6
20260905031522 73 313 0.0 0.0 0.01 0.04 0.04 93 1013.6
20260905030022 74 313 0.0 0.0 0.01 0.04 0.04 92 1013.5
20260905024526 74 313 0.0 0.0 0.01 0.04 0.04 92 1013.3
20260905023027 74 312 0.0 0.0 0.00 0.03 0.03 92 1013.4
20260905021521 74 311 0.0 0.0 0.00 0.03 0.03 92 1013.4
20260905020020 74 311 0.0 0.0 0.00 0.03 0.03 91 1013.4
20260905014520 74 311 0.0 0.0 0.00 0.03 0.03 91 1013.3
20260905013019 74 311 0.0 0.0 0.00 0.03 0.03 91 1013.3
20260905011524 74 311 0.0 0.0 0.00 0.03 0.03 91 1013.4
20260905010018 75 311 0.0 0.0 0.00 0.03 0.03 90 1013.2
20260905004520 75 311 0.0 0.0 0.00 0.03 0.03 89 1013.2
20260905003028 76 311 0.0 0.0 0.00 0.03 0.03 89 1013.2
20260905001517 76 311 0.0 0.0 0.00 0.03 0.03 88 1013.1
20260905000029 77 311 0.0 0.0 0.00 0.03 0.03 87 1013.0
20260904234516 77 311 0.0 0.0 0.00 0.03 0.03 86 1012.9
20260904233016 77 311 0.0 0.0 0.00 0.03 0.03 86 1012.8
20260904231519 78 311 0.0 0.0 0.00 0.03 0.03 86 1012.7
20260904230039 78 311 0.0 0.0 0.00 0.03 0.03 86 1012.5
20260904224515 78 311 0.0 0.0 0.00 0.04 0.03 86 1012.5
20260904223014 78 311 0.0 0.0 0.00 0.04 0.03 86 1012.6
20260904221513 78 311 0.0 0.0 0.00 0.04 0.03 85 1012.2
20260904220013 78 311 0.0 0.0 0.00 0.04 0.03 84 1012.3
20260904214513 78 311 0.0 0.0 0.00 0.05 0.03 85 1012.2
20260904213011 78 310 0.0 0.0 0.00 0.05 0.03 85 1012.2
20260904211513 78 310 0.0 0.0 0.00 0.05 0.03 85 1012.1
20260904210018 77 305 0.0 0.0 0.00 0.05 0.03 85 1011.8
20260904204507 77 296 0.0 0.0 0.00 0.05 0.03 85 1011.5
20260904203006 77 232 0.0 0.0 0.00 0.05 0.03 86 1011.4
20260904201504 77 221 0.0 0.0 0.01 0.05 0.03 86 1011.7
20260904200008 76 221 0.0 0.0 0.01 0.05 0.03 86 1011.8
20260904194602 76 217 0.0 0.0 0.01 0.05 0.03 88 1012.0
20260904193057 76 215 0.0 0.0 0.01 0.05 0.03 88 1012.1
20260904191554 76 216 0.0 0.0 0.00 0.04 0.02 88 1012.6
20260904190051 75 214 0.0 0.0 0.00 0.04 0.02 90 1012.8
20260904184607 74 282 0.0 0.0 0.00 0.04 0.02 91 1013.1
20260904183046 74 279 0.0 0.0 0.00 0.04 0.02 94 1013.2
20260904181545 73 270 0.0 0.0 0.00 0.04 0.02 95 1013.3
20260904180044 73 257 0.0 0.0 0.00 0.04 0.02 96 1013.3
20260904174610 72 213 0.0 2.0 0.00 0.04 0.02 96 1013.5
20260904173045 72 227 0.0 0.0 0.00 0.04 0.02 96 1013.7
20260904171538 72 228 0.0 0.0 0.00 0.04 0.02 96 1013.9
20260904170046 71 213 0.0 3.0 0.00 0.04 0.02 96 1013.9
20260904164537 71 209 0.0 0.0 0.00 0.04 0.02 96 1014.3
20260904163048 70 209 0.0 0.0 0.01 0.04 0.02 96 1014.5
20260904161536 70 209 0.0 0.0 0.01 0.04 0.02 96 1014.4
20260904160035 71 209 0.0 0.0 0.01 0.04 0.02 96 1015.0
20260904154535 71 209 0.0 0.0 0.01 0.04 0.02 96 1015.3
20260904153034 70 209 0.0 0.0 0.00 0.03 0.01 96 1015.8
20260904151533 70 209 0.0 0.0 0.00 0.03 0.01 96 1015.3